Temperature
16 16 17 16 16 16 16 16 16 16 16 16 16 16 16 16 16 16 16 16 15 15 15 15 15 15 15 15 15 15 15 15 15 14 14 14 14 14 14 14 14 14 14
17 16 17 16 16 16 16 16 16 16 16 16 16 16 16 16 16 16 16 15 15 15 15 15 15 15 15 15 15 15 15 14 14 14 14 14 14 14 14 14 14 14 14
16 16 16 16 16 16 16 16 16 16 16 16 16 16 16 16 16 15 15 15 15 15 15 15 15 15 15 15 14 14 14 14 14 14 14 13 13 14 14 14 14 14 13
16 16 16 16 16 16 16 16 16 16 16 16 16 16 16 16 15 15 15 15 15 15 15 15 15 15 15 14 14 14 14 14 14 14 13 13 13 13 13 13 13 13 13
16 16 16 16 16 16 16 16 16 16 16 16 16 16 16 16 15 15 15 15 15 15 15 15 15 15 14 14 14 14 14 14 14 13 13 12 13 13 13 13 13 13 13
15 15 15 16 16 16 16 16 15 15 15 15 16 15 15 15 15 15 15 15 15 15 15 15 14 14 14 14 14 14 14 14 13 13 13 12 12 12 12 12 12 12 12
15 15 15 15 15 15 15 15 15 15 15 15 15 15 15 15 15 15 15 15 15 15 14 14 14 14 14 14 14 14 14 13 13 13 12 12 12 12 12 12 12 12 12
15 15 15 15 15 15 15 15 15 15 15 15 15 15 15 15 15 15 15 14 14 14 14 14 14 14 14 14 14 13 13 13 13 12 12 12 12 12 12 12 12 12 12
14 14 14 15 15 15 15 15 15 15 15 15 15 15 15 15 15 15 14 14 14 14 14 14 14 14 14 13 13 13 13 13 12 12 12 12 12 12 12 11 11 11 11
14 14 14 14 14 14 14 14 14 14 14 14 15 15 15 14 14 14 14 14 14 14 14 14 14 13 13 13 13 13 13 12 12 12 11 11 11 11 11 11 11 11 11
14 14 14 14 14 14 14 14 14 14 14 14 14 14 14 14 14 14 14 14 14 14 14 14 13 13 13 13 13 13 12 12 11 11 11 11 11 11 11 11 11 10 10
13 13 13 13 13 13 13 13 13 13 13 13 14 14 14 14 13 13 14 14 14 14 14 13 13 13 13 12 12 12 12 11 11 11 11 11 11 11 11 10 10 10 10
13 13 13 13 13 13 13 13 13 13 13 13 13 13 13 13 13 13 13 13 13 13 13 13 13 12 12 12 12 12 11 11 11 11 11 11 11 10 10 10 10 10 10
13 13 13 13 13 13 13 13 13 13 13 13 13 13 13 13 13 13 13 13 13 13 13 13 12 12 12 12 12 12 11 11 11 11 11 11 11 10 10 10 10 10 9
12 13 13 13 13 13 13 13 13 13 13 13 13 13 13 13 13 13 13 13 13 13 12 12 12 12 12 12 12 11 11 11 11 11 11 11 10 10 10 10 9 9 9
12 12 12 12 12 12 12 12 12 13 13 12 12 12 12 12 13 13 12 12 12 12 12 12 12 12 12 12 11 11 11 11 11 10 10 10 10 10 10 10 9 9 9
11 12 12 12 12 12 12 12 12 12 12 12 12 12 12 12 12 12 12 12 12 12 12 12 12 11 11 11 11 11 11 11 10 10 10 10 10 10 10 9 9 9 9
11 11 11 12 12 12 12 12 12 12 12 12 12 12 12 12 12 12 12 12 12 11 11 11 11 11 11 11 11 11 11 10 10 10 10 10 10 9 9 9 9 9 9
11 11 11 11 11 11 11 11 11 12 12 12 12 11 11 11 11 11 11 11 11 11 11 11 11 11 11 11 11 11 10 10 10 10 9 9 9 9 9 9 9 9 8
10 10 10 10 11 11 11 11 11 11 11 11 11 11 11 11 11 11 11 11 11 11 11 11 11 10 10 10 10 10 10 10 10 9 9 9 9 9 9 8 8 8 8
10 10 10 10 10 10 10 10 10 11 11 11 11 11 11 11 11 11 11 11 11 10 10 10 10 10 10 10 10 9 9 9 9 9 9 9 9 8 8 8 8 8 7
9 9 10 10 10 10 10 10 10 10 10 10 10 10 10 10 10 10 10 10 10 10 10 10 10 10 10 9 9 9 8 8 9 9 9 8 8 8 8 7 7 7 7
9 9 9 9 10 10 10 10 10 10 10 10 10 10 10 10 10 10 10 10 10 10 10 9 9 9 9 9 9 8 8 8 8 8 8 8 8 7 7 7 7 7 6
9 9 9 9 9 9 9 9 9 9 9 9 9 9 9 9 9 9 9 9 9 9 9 9 9 9 9 9 8 8 8 8 7 7 7 7 7 7 7 7 6 6 6
8 9 9 9 9 9 9 9 9 9 9 9 9 9 9 9 9 9 9 9 9 9 9 9 9 8 8 8 8 8 8 8 8 7 7 7 7 7 7 7 6 6 6
8 8 8 8 8 8 8 9 9 9 9 9 8 8 9 9 9 8 8 8 8 8 8 8 8 8 8 8 8 8 7 7 7 7 6 6 6 6 6 6 6 6 5
Wind_Speed
6 8 11 10 11 11 11 11 12 12 13 12 12 13 13 13 13 13 13 13 13 13 13 13 13 13 13 13 13 13 13 13 12 12 12 12 12 12 12 11 10 12 12
7 10 12 12 12 11 11 12 12 12 12 13 13 13 12 13 13 13 13 12 12 12 12 13 13 13 13 12 12 12 12 12 12 11 10 11 11 12 12 11 11 10 11
7 11 13 13 12 12 12 11 12 12 12 13 13 13 12 12 12 12 12 12 12 12 12 13 12 12 12 11 11 12 12 11 10 8 7 8 10 11 11 11 11 11 11
8 10 12 13 13 12 12 12 12 12 11 12 13 12 12 11 11 12 12 11 11 11 11 12 12 11 11 11 11 11 11 10 9 6 7 8 9 11 10 10 10 11 10
8 10 12 13 12 12 12 12 12 12 11 11 12 12 12 12 11 11 11 11 11 11 11 11 11 11 11 10 10 10 10 9 7 7 8 8 9 10 10 10 10 10 10
9 10 13 13 12 12 12 13 12 12 12 11 12 12 12 12 12 11 11 10 10 10 10 10 11 11 10 10 10 10 9 8 6 7 8 8 8 9 9 10 10 10 10
8 10 13 12 12 12 12 12 13 12 12 10 11 11 11 11 11 11 10 10 10 10 10 10 10 10 10 10 10 9 8 6 6 7 7 7 8 8 8 8 9 9 9
7 9 12 13 12 12 12 12 12 12 11 11 10 11 11 10 10 10 10 10 10 9 9 10 10 9 9 9 9 9 7 4 5 6 6 7 8 7 7 7 7 7 7
7 8 10 12 12 12 12 12 12 11 11 11 10 10 11 10 10 10 9 9 9 8 8 9 9 9 8 8 8 8 7 3 4 5 5 6 6 6 6 7 7 6 7
6 7 9 11 11 11 12 12 12 11 11 10 9 10 11 10 10 10 9 8 8 8 8 8 8 8 8 7 7 7 5 2 4 4 4 5 5 5 6 6 6 6 6
6 6 7 9 10 11 11 12 12 11 10 10 9 10 10 9 9 8 8 8 8 8 8 8 8 8 8 7 7 6 3 2 3 4 4 5 4 4 4 5 5 6 6
7 7 6 8 9 10 9 11 10 10 10 9 8 9 8 7 6 7 9 8 8 7 7 7 7 7 6 5 6 5 3 2 2 3 4 4 3 3 3 4 4 5 5
8 7 7 7 9 9 8 8 7 7 8 7 7 7 7 7 7 6 7 7 7 6 6 6 5 4 3 3 3 3 2 2 2 2 3 3 3 2 2 3 4 4 4
8 8 7 7 8 9 8 7 7 6 6 6 6 7 7 5 5 6 5 5 5 4 4 4 3 4 3 3 3 3 2 1 1 2 3 3 3 3 3 3 3 4 4
9 8 8 7 7 8 8 6 6 6 6 6 6 6 7 5 5 5 4 4 4 4 4 3 3 3 3 3 2 2 2 1 1 1 2 3 3 3 3 3 4 4 5
9 9 8 8 8 8 8 7 6 6 6 6 6 6 7 6 5 5 4 4 4 4 4 3 3 2 2 2 2 1 1 1 1 0 1 1 2 3 3 4 4 5 5
9 9 8 8 8 8 8 8 6 6 6 6 5 6 6 6 6 5 4 4 4 4 4 3 3 2 2 2 2 1 1 0 0 0 0 1 1 2 3 4 4 5 5
8 8 7 6 7 8 7 7 6 6 6 5 6 5 5 6 6 5 4 4 4 4 4 3 3 2 2 2 1 1 0 0 1 1 1 1 1 1 2 3 4 5 6
8 7 7 6 6 7 6 6 6 5 5 5 5 5 5 5 6 6 4 4 5 4 3 3 3 3 2 2 1 1 1 0 1 2 1 1 1 1 2 2 3 4 6
7 7 7 6 5 5 5 5 5 5 4 4 4 5 5 5 5 5 4 5 5 4 4 4 3 3 2 2 1 1 1 1 1 2 2 2 2 2 2 3 3 3 5
7 8 7 7 6 5 5 6 6 5 5 4 4 5 5 5 4 4 4 5 5 4 4 4 3 4 2 2 1 1 1 2 2 2 2 2 2 3 3 3 4 4 4
8 8 7 7 6 6 5 5 4 4 3 3 4 4 5 5 4 3 4 4 4 4 5 5 4 3 2 2 2 2 2 3 3 2 3 3 3 3 3 4 4 5 5
8 8 7 7 6 6 6 4 4 3 3 3 4 3 4 4 4 4 4 4 4 4 4 4 5 4 3 3 2 2 2 3 3 3 3 4 4 4 4 4 5 5 6
8 7 7 6 5 5 6 7 7 6 5 4 4 4 4 4 4 4 4 4 4 4 4 4 4 4 4 4 3 3 3 2 3 3 3 3 4 4 4 4 4 5 5
6 6 6 6 5 5 6 7 8 6 5 4 4 5 4 3 4 4 4 4 4 4 4 4 4 4 3 4 3 3 3 3 4 4 5 5 4 4 4 4 4 4 5
5 6 5 6 6 5 5 6 7 8 6 6 6 5 4 3 3 4 4 3 4 4 4 3 3 4 3 3 3 3 4 3 3 4 5 6 5 5 5 4 4 4 5
Wind_Direction
157 156 150 150 142 136 132 132 127 129 127 126 123 119 119 117 117 117 115 112 110 108 105 102 99 97 94 91 90 89 86 84 82 81 80 77 75 76 74 71 70 71 68
159 158 153 151 146 141 137 134 131 128 129 126 123 120 120 120 120 119 118 115 113 111 107 103 101 98 95 94 90 88 87 86 84 82 83 84 78 76 74 69 63 69 68
154 156 157 152 147 144 141 136 133 128 130 127 124 123 123 124 124 121 119 117 115 113 110 107 104 100 98 96 93 90 88 86 84 84 88 82 79 75 73 71 69 69 68
153 157 157 151 149 147 144 139 134 133 130 131 128 127 126 125 127 125 121 119 117 115 112 109 107 104 101 98 95 93 90 86 81 80 77 74 75 73 71 71 70 66 65
152 157 152 150 151 150 148 143 138 136 134 134 133 131 129 128 127 126 123 120 118 116 114 112 109 107 103 100 96 94 91 87 84 77 75 74 72 71 69 68 68 64 61
153 156 150 151 151 151 150 147 143 139 138 134 138 136 133 130 127 125 123 121 119 119 118 116 111 106 102 99 97 94 92 89 88 77 74 72 71 70 68 68 65 62 58
151 154 152 154 154 152 149 146 144 143 143 138 140 139 136 133 131 128 127 123 122 122 121 119 114 109 105 104 101 97 94 87 83 79 74 70 67 67 67 65 63 59 54
149 152 151 152 152 152 148 147 144 145 145 141 139 140 137 136 136 133 131 126 122 124 126 124 120 114 109 107 103 99 95 87 88 80 75 70 63 61 64 61 59 54 49
149 153 152 158 157 153 149 148 146 146 146 142 138 142 137 135 136 133 131 130 126 125 128 128 127 122 115 111 107 100 93 74 82 78 70 63 57 57 59 53 50 47 45
156 159 158 161 162 161 159 150 147 146 142 138 137 139 136 135 134 131 129 126 126 123 121 122 123 124 120 116 115 107 104 109 82 76 65 64 57 56 53 45 41 35 35
170 170 167 166 164 165 165 158 153 148 141 136 137 137 143 146 144 140 129 124 124 122 121 120 120 120 121 117 114 115 128 101 83 69 61 59 53 53 47 41 37 30 28
184 181 174 174 170 167 166 164 164 159 155 154 152 155 156 150 145 141 129 123 124 125 124 119 122 133 139 128 126 136 116 102 93 79 63 54 42 47 43 36 32 25 22
189 184 183 178 175 171 168 167 166 163 162 159 155 163 159 151 146 144 143 139 137 138 132 126 140 139 137 128 131 125 103 99 86 76 64 50 22 29 37 32 23 16 11
193 189 186 184 182 178 172 171 168 165 163 158 159 164 163 157 158 156 155 155 155 151 147 149 143 137 133 127 127 120 116 107 86 78 65 51 22 12 10 9 5 360 356
201 191 188 186 187 183 176 173 171 169 165 160 160 170 170 166 166 162 160 160 163 159 161 158 150 146 138 123 116 122 127 125 120 131 81 64 23 3 354 346 344 341 340
206 197 191 191 194 189 183 178 176 171 162 160 166 173 176 172 170 167 164 164 165 165 165 165 159 152 137 127 126 129 130 131 131 88 57 73 48 14 356 342 335 331 329
209 199 192 193 197 194 189 181 176 170 164 164 168 175 176 177 176 173 171 171 167 164 163 158 153 147 138 135 136 120 119 127 171 300 335 329 350 34 9 353 343 333 325
212 204 192 190 198 196 192 183 176 172 167 169 171 174 178 183 180 178 177 174 168 167 166 161 167 167 166 165 165 158 156 111 279 294 307 319 320 328 357 360 350 342 334
208 203 191 188 197 195 188 182 174 170 168 170 170 174 182 188 186 183 182 175 172 173 174 173 179 183 181 178 188 212 220 250 287 288 282 292 303 306 311 327 322 334 333
206 202 193 191 196 189 181 173 169 168 169 167 172 177 179 185 188 185 181 179 176 178 181 183 180 177 186 196 199 255 251 246 246 271 276 275 282 285 300 308 303 307 317
203 201 194 193 195 184 184 179 178 180 178 176 179 179 180 185 187 189 180 180 182 188 191 186 182 180 184 193 220 261 258 241 235 249 262 271 275 280 289 303 306 309 308
205 199 197 197 196 192 191 188 183 175 174 173 172 180 183 180 183 188 186 184 186 187 193 190 192 195 191 213 239 256 259 243 226 241 250 261 267 271 280 290 296 300 305
204 199 199 201 200 196 184 170 160 152 156 177 181 184 185 184 186 186 200 194 189 187 193 196 199 206 199 207 231 243 255 266 290 234 244 252 261 269 275 287 289 294 298
204 195 198 197 197 194 186 181 178 185 192 198 191 186 185 188 189 189 193 198 195 198 198 198 206 214 206 207 214 237 256 273 262 265 240 246 263 271 278 283 287 291 294
205 195 198 194 190 192 194 192 190 194 199 190 185 186 189 190 192 191 188 197 194 200 207 205 209 215 217 220 221 224 234 238 246 257 266 265 266 265 274 275 279 291 296
202 200 194 187 189 193 197 198 199 197 194 190 191 192 194 197 202 197 191 197 199 199 206 201 206 210 214 222 233 236 236 232 236 249 264 269 273 275 275 269 272 285 294
Height
1522 1523 1524 1526 1527 1528 1530 1531 1532 1533 1533 1534 1535 1535 1535 1536 1537 1537 1538 1538 1538 1538 1538 1538 1538 1538 1537 1537 1536 1536 1536 1535 1535 1535 1534 1534 1534 1534 1533 1533 1533 1532 1531
1521 1522 1524 1526 1527 1528 1530 1531 1532 1533 1534 1534 1535 1536 1536 1537 1537 1538 1538 1539 1539 1539 1539 1539 1539 1539 1538 1538 1538 1537 1537 1537 1536 1536 1536 1536 1535 1535 1535 1534 1533 1533 1532
1521 1522 1523 1525 1527 1528 1530 1531 1532 1533 1534 1534 1535 1536 1537 1537 1538 1538 1539 1539 1539 1540 1540 1540 1540 1540 1539 1539 1539 1538 1538 1538 1537 1537 1537 1537 1537 1536 1536 1535 1534 1534 1533
1520 1522 1524 1525 1527 1528 1530 1531 1532 1533 1534 1535 1535 1536 1537 1538 1538 1539 1539 1540 1540 1540 1540 1540 1540 1540 1540 1540 1540 1539 1539 1539 1538 1538 1539 1539 1538 1537 1536 1536 1535 1534 1534
1520 1522 1524 1525 1526 1528 1529 1531 1532 1533 1533 1535 1535 1536 1537 1538 1539 1539 1540 1540 1540 1541 1541 1541 1541 1541 1541 1540 1540 1540 1540 1540 1539 1540 1540 1539 1539 1538 1537 1537 1536 1535 1534
1520 1522 1523 1525 1526 1527 1529 1530 1532 1533 1534 1534 1535 1536 1537 1538 1539 1539 1540 1540 1541 1541 1541 1541 1541 1541 1541 1541 1541 1541 1540 1540 1541 1541 1540 1540 1540 1539 1538 1537 1536 1536 1535
1520 1521 1522 1524 1526 1527 1528 1530 1531 1532 1533 1534 1535 1536 1537 1538 1538 1539 1540 1540 1541 1541 1541 1541 1541 1542 1541 1541 1541 1541 1541 1541 1541 1541 1541 1541 1540 1539 1538 1538 1537 1536 1535
1519 1521 1522 1524 1525 1527 1528 1530 1531 1532 1533 1534 1535 1536 1537 1537 1538 1539 1540 1540 1540 1541 1541 1541 1541 1542 1542 1542 1541 1541 1541 1541 1541 1541 1541 1541 1540 1539 1538 1538 1537 1536 1535
1519 1520 1521 1523 1525 1526 1528 1529 1530 1532 1533 1534 1534 1535 1536 1537 1538 1538 1539 1540 1540 1540 1541 1541 1541 1541 1542 1542 1541 1541 1541 1541 1542 1542 1541 1541 1540 1539 1538 1537 1537 1536 1534
1518 1519 1520 1522 1524 1525 1527 1529 1530 1531 1532 1533 1534 1535 1536 1537 1538 1538 1539 1539 1540 1540 1540 1541 1541 1541 1541 1541 1541 1541 1541 1541 1542 1541 1541 1540 1539 1539 1538 1537 1536 1535 1534
1516 1518 1519 1521 1522 1524 1526 1527 1529 1530 1531 1532 1533 1534 1535 1536 1537 1538 1538 1539 1539 1540 1540 1540 1541 1541 1541 1541 1541 1541 1541 1541 1541 1541 1540 1539 1539 1538 1537 1536 1535 1534 1533
1514 1516 1517 1519 1521 1523 1525 1526 1528 1529 1530 1531 1532 1533 1534 1535 1536 1537 1537 1538 1538 1539 1539 1540 1540 1540 1541 1541 1540 1540 1540 1540 1540 1540 1539 1538 1538 1537 1536 1535 1534 1533 1532
1512 1513 1515 1517 1519 1521 1522 1524 1526 1527 1528 1529 1530 1531 1533 1534 1535 1536 1536 1537 1538 1538 1539 1539 1539 1539 1540 1540 1539 1539 1539 1540 1539 1539 1538 1537 1537 1536 1535 1534 1533 1532 1531
1509 1510 1512 1514 1516 1519 1520 1522 1524 1525 1526 1527 1528 1529 1531 1532 1533 1534 1535 1536 1537 1537 1538 1538 1538 1538 1539 1539 1538 1538 1538 1538 1538 1537 1537 1536 1535 1535 1534 1533 1532 1531 1529
1506 1507 1509 1512 1514 1516 1518 1520 1521 1523 1524 1525 1526 1528 1529 1530 1532 1533 1534 1534 1535 1536 1536 1537 1537 1537 1537 1538 1537 1537 1537 1537 1536 1536 1535 1534 1534 1533 1532 1531 1530 1529 1528
1503 1504 1506 1509 1511 1513 1515 1517 1518 1520 1521 1524 1525 1526 1527 1529 1530 1531 1532 1533 1534 1534 1535 1536 1536 1536 1535 1536 1536 1535 1535 1535 1535 1534 1534 1533 1532 1531 1530 1529 1528 1527 1526
1500 1502 1503 1506 1508 1510 1512 1514 1516 1518 1519 1521 1523 1524 1525 1527 1528 1529 1530 1531 1532 1532 1533 1534 1534 1534 1534 1534 1534 1534 1533 1533 1533 1532 1532 1531 1530 1529 1528 1527 1526 1525 1523
1497 1499 1500 1503 1505 1507 1509 1511 1513 1515 1517 1519 1521 1522 1523 1525 1526 1527 1528 1529 1529 1530 1531 1531 1532 1532 1532 1533 1532 1532 1532 1531 1531 1531 1530 1529 1529 1527 1526 1525 1523 1522 1521
1494 1495 1497 1499 1502 1504 1506 1508 1510 1512 1514 1517 1518 1520 1521 1522 1524 1525 1526 1527 1527 1528 1529 1530 1530 1531 1530 1531 1530 1530 1530 1529 1529 1529 1528 1527 1526 1525 1524 1522 1521 1519 1518
1490 1492 1494 1496 1499 1501 1503 1505 1507 1509 1511 1513 1515 1517 1518 1519 1521 1522 1523 1524 1525 1526 1527 1527 1528 1528 1528 1528 1528 1528 1527 1527 1527 1527 1526 1525 1524 1523 1522 1520 1519 1517 1515
1487 1489 1490 1493 1495 1497 1499 1501 1504 1506 1508 1511 1513 1514 1515 1517 1518 1519 1521 1522 1523 1523 1524 1525 1525 1526 1526 1526 1526 1526 1525 1525 1524 1524 1524 1523 1522 1520 1519 1517 1516 1514 1512
1483 1485 1487 1489 1491 1493 1496 1498 1500 1503 1506 1508 1509 1511 1513 1514 1515 1516 1518 1519 1520 1521 1522 1522 1523 1523 1523 1524 1524 1524 1523 1524 1522 1521 1521 1520 1519 1518 1516 1514 1513 1511 1509
1479 1481 1483 1485 1487 1489 1493 1495 1498 1500 1503 1505 1506 1508 1509 1510 1511 1513 1514 1515 1516 1517 1518 1519 1520 1520 1520 1521 1522 1522 1522 1521 1520 1518 1517 1517 1516 1515 1513 1512 1510 1508 1506
1475 1478 1480 1482 1484 1487 1490 1492 1494 1496 1498 1500 1502 1504 1505 1507 1508 1510 1511 1512 1513 1514 1515 1515 1516 1516 1517 1517 1518 1519 1519 1518 1518 1516 1515 1514 1513 1512 1510 1508 1506 1505 1503
1471 1474 1476 1478 1481 1484 1486 1488 1491 1493 1495 1497 1499 1500 1502 1503 1504 1506 1507 1508 1510 1510 1511 1511 1512 1512 1513 1514 1515 1515 1515 1514 1514 1513 1511 1510 1509 1508 1506 1505 1503 1501 1499
1468 1471 1473 1475 1478 1480 1483 1485 1487 1489 1491 1494 1495 1496 1498 1499 1500 1502 1503 1504 1506 1506 1507 1508 1509 1509 1510 1511 1511 1511 1511 1510 1510 1509 1508 1506 1505 1504 1502 1501 1499 1497 1495